Regional Weather Roundup
Issued by NWS Sterling, VA

Home | Current Version | Previous Version | Graphics & Text | Print | Product List | Glossary On
Versions: 1 2 3 4 5 6 7 8 9 10 11 12 13 14 15 16 17 18 19 20 21 22 23 24 25 26 27 28 29 30 31 32 33 34 35 36 37 38 39 40 41 42 43 44 45 46 47 48 49 50
000
ASUS41 KLWX 301710
RWRLWX

REGIONAL WEATHER ROUNDUP
NATIONAL WEATHER SERVICE BALTIMORE MD/WASHINGTON DC
1200 PM EST FRI JAN 30 2015

Note: "FAIR" indicates few or no clouds below 12,000 feet
with no significant weather and/or obstructions to visibility.
 TC=TEMPERATURE CELSIUS

 * =Non NWS site. Station does not report precipitation (e.g. rain,
    snow, etc.), thunder, or fog.

DCZ001-MDZ009-015-VAZ040>042-051-053>054-301800-
WASHINGTON METRO

CITY           SKY/WX    TMP DP  RH WIND       PRES   REMARKS
WASHINGTON NAT PTSUNNY   40  21  46 NW16G31   30.06S
DULLES         PTSUNNY   37  15  40 NW22G32   30.05S WCI  26
ANDREWS AFB    PTSUNNY   36  22  56 NW23G33   30.01F WCI  24
FT BELVOIR     CLOUDY    40  17  40 NW24G43   30.06S
QUANTICO       PTSUNNY   40  17  39 N22G33    30.07S
COLLEGE PARK*  CLOUDY    39  23  52 NW20G25   30.03S
LEESBURG*      MOSUNNY   36  18  48 NW31G44   30.06S WCI  22
MANASSAS*      CLOUDY    36  21  55 NW22G36   30.07R WCI  24
GAITHERSBURG*  MOSUNNY   34  21  60 NW14G25   30.05S WCI  24

$$

MDZ006>007-011-014-301800-
BALTIMORE METRO

CITY           SKY/WX    TMP DP  RH WIND       PRES   REMARKS
BWI AIRPORT    NOT AVBL
MD SCIENCE CTR   N/A     39  20  46 MISG      30.00S
MARTIN STATE   PTSUNNY   43  25  49 W23G33    30.00S
ANNAPOLIS      CLOUDY    40  20  44 NW18G26   30.00S
FORT MEADE*    CLOUDY    39  23  52 NW20G25   30.03S

$$

MDZ012-015-019>023-301800-
MARYLAND EASTERN SHORE

CITY           SKY/WX    TMP DP  RH WIND       PRES   REMARKS
OCEAN CITY     PTSUNNY   43  23  45 N21G31    29.94F
SALISBURY      MOSUNNY   45  20  36 NW17G33   29.95F
BAY BRIDGE AP*   N/A     41  23  48 NW17G23   29.99F
CAMBRIDGE*     MOSUNNY   43  23  45 NW15G24   29.98F
EASTON*        MOSUNNY   45  25  45 NW22G32   30.00F

$$

MDZ017>025-301800-
SOUTHERN MARYLAND

CITY           SKY/WX    TMP DP  RH WIND       PRES   REMARKS
PATUXENT RIVER PTSUNNY   38  27  64 NW21G26   30.01S WCI  28
ST INIGOES     CLOUDY    39  24  55 NW9G22    30.02R
LEONARDTOWN*   CLOUDY    37  28  70 NW9       30.03F

$$

MDZ003>005-301800-
NORTH CENTRAL MARYLAND

CITY           SKY/WX    TMP DP  RH WIND       PRES   REMARKS
FREDERICK*     CLOUDY    37  19  48 MISG      30.08R
HAGERSTOWN APT CLOUDY    32  21  64 NW18G25   30.05R WCI  20
WESTMINSTER*   PTSUNNY   36  21  55 NW14G23   29.99R WCI  27

$$

MDZ501>502-301800-
WESTERN MARYLAND

CITY           SKY/WX    TMP DP  RH WIND       PRES   REMARKS
OAKLAND*       CLOUDY    18 N/A N/A NW16G26   30.02R FOG     WCI   3
CUMBERLAND*    MOSUNNY   32  16  51 NW21G31   30.17R WCI  20

$$

VAZ025>031-301800-
SHENANDOAH VALLEY

CITY           SKY/WX    TMP DP  RH WIND       PRES   REMARKS
WINCHESTER*    CLOUDY    34  16  47 NW20G33   30.07S WCI  22
FRONT ROYAL*   CLOUDY    32  21  64 N12G17    30.08R WCI  23
LURAY*         CLOUDY    36  19  51 N17G30    30.07S WCI  25
NEW MARKET*    CLOUDY    34  20  56 NW6       30.08R
STAUNTON*      CLOUDY    36  13  38 NW23      30.08S WCI  24
WAYNESBORO*    CLOUDY    36  16  43 NW22G29   30.04R WCI  24

$$

WVZ021-048>050-054>055-301800-
EASTERN WEST VIRGINIA PANHANDLE

CITY           SKY/WX    TMP DP  RH WIND       PRES   REMARKS
MARTINSBURG    MOSUNNY   36  13  38 W26G33    30.06S WCI  24
PETERSBURG*    CLOUDY    31  15  51 N14G22    30.14R WCI  21

$$

VAZ036>039-050-301800-
CENTRAL FOOTHILLS

CITY           SKY/WX    TMP DP  RH WIND       PRES   REMARKS
CHARLOTTESVILL PTSUNNY   40  15  36 NW15G24   30.05S
CULPEPER*      CLOUDY    39  18  41 N12G22    30.07R
ORANGE*        PTSUNNY   41  18  38 W15G24    30.07R
GORDONSVILLE*  PTSUNNY   39  15  36 NW5G22    30.05S
WARRENTON*     CLOUDY    39  23  53 NW23G29   30.05S WCI  29

$$

VAZ055>057-301800-
NORTH AND CENTRAL PIEDMONT

CITY           SKY/WX    TMP DP  RH WIND       PRES   REMARKS
FREDERICKSBRG* CLOUDY    41  18  38 NW16G23   30.05R
STAFFORD*      CLOUDY    39  13  34 NW22G37   30.09S WCI  29

$$

NCZ024-NYZ072-PAZ021-071-VAZ022-071-301800-
OTHER REGIONAL OBSERVATIONS

CITY           SKY/WX    TMP DP  RH WIND       PRES   REMARKS
NEW YORK CITY  CLOUDY    36  23  59 NW16G23   29.86F WCI  26
PHILADELPHIA   PTSUNNY   39  20  46 NW24G32   29.93F WCI  28
PITTSBURGH     FLURRIES  19  11  70 NW23G29   30.24R WCI   2
ROANOKE        PTSUNNY   37  16  42 W29G35    30.15R WCI  25
RICHMOND       CLOUDY    44  20  38 NW15G26   30.03S
RALEIGH        PTSUNNY   45  18  34 NW13G22   30.11S

$$

ANZ530>537-301800-
MARINE OBSERVATIONS

STATION/POSITION TIME  TEMP    WIND        PRES
                       AIR SEA DIR/SP/G
                 (UTC) (F)     (DEG/KT/KT) (MB)
THOMAS PT LIGHT  1700   40 36  320/ 22/ 25 1016.2F
BALT KEY BRIDGE  1600   39     300/ 16/ 19 1015.6F
COVE POINT       1600   38     340/ 26/ 31 1015.9S
LEWISETTA        1600   41 37  340/ 11/ 15 1016.3F
SOLOMONS ISLAND  1600      37                N/A
PINEY POINT      1600          330/ 22/ 25   N/A

$$



USA.gov is the U.S. government's official web portal to all federal, state and local government web resources and services.